Weather History for Milledgeville, GA

Change the Weather History Date:

Friday, March 1, 2013

  Actual Average (KOKZ) Record (KOKZ)
Temperature  
Mean Temperature 44 °F -  
Max Temperature 55 °F 64 °F 65 °F (2014)
Min Temperature 33 °F 38 °F 41 °F (2014)
Degree Days  
Heating Degree Days 21    
Moisture  
Dew Point 30 °F    
Average Humidity 59    
Maximum Humidity 87    
Minimum Humidity 41    
Precipitation  
Precipitation 0.00 in - - ()
Sea Level Pressure  
Sea Level Pressure 29.97 in    
Wind  
Wind Speed 5 mph (WNW)    
Max Wind Speed 14 mph    
Max Gust Speed 20 mph    
Visibility 10 miles    
Events      
Averages and records for this station are not official NWS values.
T = Trace of Precipitation, MM = Missing Value Source: NWS Daily Summary

Daily Weather History Graph

Daily Weather History Graph

Search for Another Location

Airport:

Trip Planner

Search our weather history database for the weather conditions in past years. The results will help you decide how hot, cold, wet, or windy it might be!

Date:

Astronomy

Mar. 01, 2013 Rise Set
Actual Time 7:00 AM EST 6:30 PM EST
Civil Twilight 6:35 AM EST 6:55 PM EST
Nautical Twilight 6:07 AM EST 7:23 PM EST
Astronomical Twilight 5:38 AM EST 7:52 PM EST
Moon 10:45 PM EST (3/1) 9:01 AM EST (3/1)
Length of Visible Light 12h 19m
Length of Day
11h 29m
Waning Gibbous, 83% of the Moon is Illuminated
Mar 1
Waning Gibbous
Mar 4
Last Quarter
Mar 11
New
Mar 19
First Quarter
Mar 27
Full

Hourly Weather History & Observations

Time (EST) Temp. Windchill Dew Point Humidity Pressure Visibility Wind Dir Wind Speed Gust Speed Precip Events Conditions
12:15 AM 42.8 °F 41.1 °F 30.2 °F 61% 29.98 in 10.0 mi WNW 3.5 mph - N/A   Mostly Cloudy
12:35 AM 42.8 °F 41.1 °F 30.2 °F 61% 29.97 in 10.0 mi NW 3.5 mph - N/A   Overcast
12:55 AM 41.0 °F 37.1 °F 30.2 °F 65% 29.98 in 10.0 mi NW 5.8 mph - N/A   Scattered Clouds
1:15 AM 41.0 °F 37.1 °F 30.2 °F 65% 29.97 in 10.0 mi NW 5.8 mph - N/A   Clear
1:35 AM 41.0 °F 38.0 °F 30.2 °F 65% 29.98 in 10.0 mi NW 4.6 mph - N/A   Clear
1:55 AM 41.0 °F 39.0 °F 30.2 °F 65% 29.98 in 10.0 mi NNW 3.5 mph - N/A   Clear
2:15 AM 41.0 °F 36.4 °F 30.2 °F 65% 29.98 in 10.0 mi WNW 6.9 mph - N/A   Clear
2:35 AM 41.0 °F 37.1 °F 30.2 °F 65% 29.98 in 10.0 mi WNW 5.8 mph - N/A   Clear
3:15 AM 39.2 °F 35.9 °F 30.2 °F 70% 29.98 in 10.0 mi West 4.6 mph - N/A   Clear
3:35 AM 37.4 °F 32.8 °F 28.4 °F 70% 29.98 in 10.0 mi WNW 5.8 mph - N/A   Clear
3:55 AM 37.4 °F 34.9 °F 28.4 °F 70% 29.98 in 10.0 mi West 3.5 mph - N/A   Clear
4:15 AM 37.4 °F 33.8 °F 28.4 °F 70% 29.97 in 10.0 mi WNW 4.6 mph - N/A   Clear
4:55 AM 37.4 °F 33.8 °F 28.4 °F 70% 29.97 in 10.0 mi WNW 4.6 mph - N/A   Clear
5:15 AM 37.4 °F 32.1 °F 28.4 °F 70% 29.97 in 10.0 mi WNW 6.9 mph - N/A   Clear
5:55 AM 37.4 °F 32.8 °F 28.4 °F 70% 29.98 in 10.0 mi WNW 5.8 mph - N/A   Clear
6:15 AM 35.6 °F 31.7 °F 28.4 °F 75% 29.98 in 10.0 mi WNW 4.6 mph - N/A   Clear
6:35 AM 35.6 °F - 28.4 °F 75% 29.97 in 10.0 mi Calm Calm - N/A   Clear
6:55 AM 35.6 °F - 30.2 °F 81% 29.97 in 10.0 mi Calm Calm - N/A   Clear
7:15 AM 33.8 °F - 30.2 °F 87% 29.98 in 10.0 mi Calm Calm - N/A   Clear
7:35 AM 35.6 °F - 30.2 °F 81% 29.99 in 10.0 mi Calm Calm - N/A   Clear
7:55 AM 35.6 °F - 30.2 °F 81% 29.99 in 10.0 mi Calm Calm - N/A   Clear
8:15 AM 37.4 °F 33.8 °F 30.2 °F 75% 30.00 in 10.0 mi West 4.6 mph - N/A   Clear
8:35 AM 41.0 °F 36.4 °F 30.2 °F 65% 30.01 in 10.0 mi WNW 6.9 mph - N/A   Clear
8:55 AM 42.8 °F 37.5 °F 30.2 °F 61% 30.01 in 10.0 mi WNW 9.2 mph - N/A   Clear
9:15 AM 42.8 °F 37.0 °F 30.2 °F 61% 30.01 in 10.0 mi WNW 10.4 mph - N/A   Clear
9:55 AM 44.6 °F 40.7 °F 30.2 °F 57% 30.00 in 10.0 mi NNW 6.9 mph - N/A   Clear
10:15 AM 44.6 °F 42.2 °F 30.2 °F 57% 30.00 in 10.0 mi NNW 4.6 mph - N/A   Clear
10:35 AM 46.4 °F 42.9 °F 30.2 °F 53% 30.00 in 10.0 mi NW 6.9 mph - N/A   Scattered Clouds
11:15 AM 48.2 °F - 32.0 °F 54% 29.99 in 10.0 mi WNW 6.9 mph - N/A   Scattered Clouds
11:35 AM 50.0 °F - 32.0 °F 50% 29.99 in 10.0 mi West 5.8 mph - N/A   Scattered Clouds
11:55 AM 50.0 °F - 32.0 °F 50% 29.99 in 10.0 mi SW 3.5 mph - N/A   Scattered Clouds
12:15 PM 50.0 °F - 32.0 °F 50% 29.98 in 10.0 mi WNW 6.9 mph - N/A   Scattered Clouds
12:35 PM 51.8 °F - 32.0 °F 47% 29.98 in 10.0 mi West 9.2 mph - N/A   Scattered Clouds
1:15 PM 51.8 °F - 32.0 °F 47% 29.95 in 10.0 mi WNW 5.8 mph - N/A   Scattered Clouds
1:35 PM 53.6 °F - 32.0 °F 44% 29.94 in 10.0 mi NW 10.4 mph 16.1 mph N/A   Clear
1:55 PM 53.6 °F - 30.2 °F 41% 29.94 in 10.0 mi WNW 9.2 mph 16.1 mph N/A   Clear
2:15 PM 53.6 °F - 30.2 °F 41% 29.92 in 10.0 mi WNW 6.9 mph - N/A   Scattered Clouds
2:35 PM 53.6 °F - 30.2 °F 41% 29.92 in 10.0 mi NW 6.9 mph - N/A   Scattered Clouds
2:55 PM 53.6 °F - 30.2 °F 41% 29.91 in 10.0 mi WNW 9.2 mph - N/A   Clear
3:15 PM 55.4 °F - 32.0 °F 41% 29.92 in 10.0 mi WNW 8.1 mph - N/A   Scattered Clouds
3:35 PM 53.6 °F - 32.0 °F 44% 29.92 in 10.0 mi NW 8.1 mph 17.3 mph N/A   Mostly Cloudy
3:55 PM 53.6 °F - 32.0 °F 44% 29.92 in 10.0 mi WNW 6.9 mph 18.4 mph N/A   Mostly Cloudy
4:15 PM 53.6 °F - 30.2 °F 41% 29.92 in 10.0 mi WNW 13.8 mph 18.4 mph N/A   Scattered Clouds
4:35 PM 51.8 °F - 30.2 °F 44% 29.93 in 10.0 mi NNW 9.2 mph 16.1 mph N/A   Mostly Cloudy
4:55 PM 51.8 °F - 30.2 °F 44% 29.94 in 10.0 mi West 11.5 mph 18.4 mph N/A   Scattered Clouds
5:15 PM 50.0 °F - 30.2 °F 47% 29.95 in 10.0 mi NW 12.7 mph 19.6 mph N/A   Clear
5:35 PM 48.2 °F - 30.2 °F 50% 29.95 in 10.0 mi NW 9.2 mph - N/A   Clear
5:55 PM 46.4 °F 42.9 °F 30.2 °F 53% 29.95 in 10.0 mi NW 6.9 mph - N/A   Clear
6:15 PM 46.4 °F 42.9 °F 30.2 °F 53% 29.96 in 10.0 mi NW 6.9 mph 17.3 mph N/A   Clear
6:55 PM 44.6 °F 42.2 °F 30.2 °F 57% 29.97 in 10.0 mi NW 4.6 mph - N/A   Clear
7:15 PM 44.6 °F 42.2 °F 30.2 °F 57% 29.98 in 10.0 mi WNW 4.6 mph - N/A   Clear
7:35 PM 44.6 °F 42.2 °F 30.2 °F 57% 29.98 in 10.0 mi WNW 4.6 mph - N/A   Clear
7:55 PM 42.8 °F 40.1 °F 30.2 °F 61% 29.99 in 10.0 mi WNW 4.6 mph - N/A   Clear
8:15 PM 42.8 °F 38.0 °F 30.2 °F 61% 29.98 in 10.0 mi NW 8.1 mph - N/A   Clear
8:35 PM 44.6 °F 38.8 °F 30.2 °F 57% 29.98 in 10.0 mi NW 11.5 mph 17.3 mph N/A   Clear
8:55 PM 44.6 °F 40.7 °F 30.2 °F 57% 29.98 in 10.0 mi NW 6.9 mph - N/A   Clear
9:15 PM 44.6 °F 40.7 °F 30.2 °F 57% 29.99 in 10.0 mi WNW 6.9 mph - N/A   Clear
9:35 PM 42.8 °F 37.5 °F 30.2 °F 61% 29.99 in 10.0 mi WNW 9.2 mph - N/A   Clear
9:55 PM 42.8 °F 39.3 °F 30.2 °F 61% 29.99 in 10.0 mi WNW 5.8 mph - N/A   Clear
10:15 PM 42.8 °F 38.0 °F 30.2 °F 61% 30.00 in 10.0 mi WNW 8.1 mph - N/A   Clear
10:35 PM 42.8 °F 40.1 °F 30.2 °F 61% 29.99 in 10.0 mi West 4.6 mph - N/A   Scattered Clouds
10:55 PM 42.8 °F 38.0 °F 30.2 °F 61% 29.99 in 10.0 mi WNW 8.1 mph - N/A   Overcast
11:15 PM 44.6 °F 40.7 °F 30.2 °F 57% 29.99 in 10.0 mi WNW 6.9 mph - N/A   Overcast
11:35 PM 42.8 °F 39.3 °F 30.2 °F 61% 29.98 in 10.0 mi WNW 5.8 mph - N/A   Overcast
11:55 PM 42.8 °F - 30.2 °F 61% 29.98 in 10.0 mi Calm Calm - N/A   Overcast